�������l�o���
Date,Time,MP-1(��Sv/h),MP-2(��Sv/h),MP-3(��Sv/h),MP-4(��Sv/h),MP-5(��Sv/h),MP-6(��Sv/h),MP-7(��Sv/h),MP-8(��Sv/h),����,����(m/s),���J
2023/11/25,00:00,0.522,0.794,0.490,0.997,0.712,0.316,0.569,0.531,���k��,7.0,��
2023/11/25,00:10,0.522,0.795,0.491,0.996,0.713,0.316,0.567,0.531,���k��,6.7,��
2023/11/25,00:20,0.521,0.794,0.490,0.996,0.712,0.316,0.568,0.532,���k��,7.4,��
2023/11/25,00:30,0.520,0.794,0.491,0.995,0.713,0.316,0.566,0.529,���k��,8.2,��
2023/11/25,00:40,0.521,0.794,0.491,0.994,0.713,0.317,0.568,0.531,���k��,7.8,�L
2023/11/25,00:50,0.520,0.794,0.492,0.995,0.713,0.315,0.568,0.531,���k��,5.3,�L
2023/11/25,01:00,0.522,0.794,0.492,0.994,0.711,0.315,0.569,0.532,���k��,6.4,�L
2023/11/25,01:10,0.523,0.794,0.490,0.996,0.713,0.316,0.568,0.530,���k��,5.3,��
2023/11/25,01:20,0.522,0.793,0.490,0.995,0.712,0.316,0.566,0.531,��,3.4,��
2023/11/25,01:30,0.521,0.795,0.491,0.995,0.711,0.315,0.568,0.529,��,3.0,��
2023/11/25,01:40,0.521,0.793,0.491,0.994,0.712,0.315,0.567,0.530,���k��,3.8,��
2023/11/25,01:50,0.520,0.793,0.491,0.996,0.713,0.317,0.565,0.531,���k��,4.3,��
2023/11/25,02:00,0.521,0.792,0.490,0.996,0.713,0.315,0.566,0.530,���k��,4.8,��
2023/11/25,02:10,0.522,0.793,0.489,0.994,0.713,0.317,0.567,0.528,���k��,6.9,��
2023/11/25,02:20,0.520,0.794,0.491,0.995,0.712,0.315,0.567,0.529,�k��,7.0,��
2023/11/25,02:30,0.521,0.795,0.489,0.996,0.711,0.317,0.566,0.529,���k��,8.1,�L
2023/11/25,02:40,0.521,0.792,0.492,0.996,0.714,0.316,0.567,0.530,���k��,8.3,��
2023/11/25,02:50,0.521,0.794,0.491,0.996,0.713,0.316,0.568,0.529,���k��,7.2,��
2023/11/25,03:00,0.522,0.794,0.490,0.994,0.711,0.316,0.568,0.529,���k��,7.7,��
2023/11/25,03:10,0.521,0.795,0.491,0.995,0.713,0.315,0.568,0.527,���k��,8.6,��
2023/11/25,03:20,0.521,0.795,0.489,0.993,0.712,0.316,0.567,0.528,���k��,6.2,��
2023/11/25,03:30,0.521,0.795,0.491,0.993,0.712,0.316,0.566,0.529,���k��,7.4,��
2023/11/25,03:40,0.521,0.794,0.490,0.995,0.713,0.314,0.569,0.528,���k��,6.5,��
2023/11/25,03:50,0.520,0.795,0.490,0.992,0.715,0.314,0.566,0.528,���k��,6.2,��
2023/11/25,04:00,0.520,0.792,0.491,0.997,0.713,0.315,0.567,0.529,���k��,7.5,��
2023/11/25,04:10,0.522,0.794,0.490,0.994,0.712,0.315,0.566,0.529,���k��,8.1,��
2023/11/25,04:20,0.519,0.794,0.490,0.994,0.712,0.315,0.565,0.529,���k��,6.2,��
2023/11/25,04:30,0.522,0.794,0.490,0.993,0.711,0.314,0.567,0.528,�k��,5.7,��
2023/11/25,04:40,0.521,0.794,0.491,0.995,0.711,0.315,0.567,0.529,�k��,5.5,��
2023/11/25,04:50,0.521,0.793,0.489,0.992,0.712,0.315,0.567,0.527,�k��,7.5,��
2023/11/25,05:00,0.521,0.792,0.490,0.993,0.712,0.314,0.566,0.528,���k��,5.5,��
2023/11/25,05:10,0.521,0.794,0.490,0.993,0.711,0.314,0.565,0.529,���k��,5.1,��
2023/11/25,05:20,0.519,0.795,0.490,0.994,0.713,0.313,0.567,0.528,���k��,4.3,��
2023/11/25,05:30,0.521,0.794,0.489,0.995,0.711,0.314,0.567,0.528,���k��,4.5,��
2023/11/25,05:40,0.521,0.793,0.488,0.993,0.710,0.314,0.567,0.528,���k��,4.3,��
2023/11/25,05:50,0.520,0.794,0.489,0.995,0.710,0.314,0.566,0.526,���k��,5.0,��
2023/11/25,06:00,0.520,0.794,0.490,0.995,0.711,0.314,0.566,0.526,���k��,4.8,��
2023/11/25,06:10,0.521,0.792,0.489,0.994,0.711,0.315,0.567,0.526,���k��,5.4,��
2023/11/25,06:20,0.520,0.793,0.490,0.994,0.711,0.314,0.567,0.527,�k��,5.6,��
2023/11/25,06:30,0.521,0.793,0.488,0.993,0.712,0.315,0.566,0.528,�k��,5.0,��
2023/11/25,06:40,0.521,0.792,0.490,0.995,0.713,0.314,0.567,0.526,�k��,4.4,�L
2023/11/25,06:50,0.521,0.793,0.490,0.995,0.711,0.314,0.567,0.527,�k��,7.4,�L
2023/11/25,07:00,0.520,0.793,0.491,0.995,0.713,0.315,0.568,0.527,���k��,6.0,��
2023/11/25,07:10,0.522,0.794,0.489,0.994,0.712,0.315,0.567,0.529,�k��,6.2,�L
2023/11/25,07:20,0.522,0.793,0.489,0.993,0.711,0.314,0.569,0.529,�k��,6.6,��
2023/11/25,07:30,0.520,0.792,0.489,0.995,0.710,0.315,0.567,0.527,�k��,5.8,�L
2023/11/25,07:40,0.522,0.793,0.489,0.994,0.713,0.316,0.568,0.529,�k��,6.4,�L
2023/11/25,07:50,0.521,0.794,0.490,0.993,0.712,0.315,0.566,0.529,���k��,6.8,��
2023/11/25,08:00,0.520,0.792,0.489,0.993,0.711,0.315,0.567,0.528,���k��,6.9,��
2023/11/25,08:10,0.522,0.793,0.489,0.995,0.713,0.314,0.567,0.528,�k��,6.3,��
2023/11/25,08:20,0.522,0.794,0.489,0.993,0.710,0.314,0.567,0.527,���k��,4.5,��
2023/11/25,08:30,0.521,0.793,0.489,0.994,0.711,0.314,0.567,0.528,���k��,4.9,��
2023/11/25,08:40,0.520,0.792,0.489,0.995,0.712,0.315,0.566,0.527,���k��,5.2,��
2023/11/25,08:50,0.520,0.793,0.490,0.995,0.713,0.315,0.567,0.527,���k��,4.9,��
2023/11/25,09:00,0.522,0.794,0.489,0.992,0.713,0.315,0.567,0.528,���k��,2.3,��
2023/11/25,09:10,0.521,0.794,0.491,0.996,0.713,0.315,0.568,0.528,���k��,4.2,��
2023/11/25,09:20,0.522,0.794,0.489,0.995,0.712,0.316,0.568,0.531,��,2.6,��
2023/11/25,09:30,0.522,0.794,0.492,0.993,0.713,0.314,0.568,0.529,���k��,4.1,��
2023/11/25,09:40,0.522,0.795,0.491,0.994,0.714,0.315,0.566,0.530,�k��,6.1,��
2023/11/25,09:50,0.521,0.796,0.491,0.996,0.714,0.315,0.566,0.528,���k��,6.0,��
2023/11/25,10:00,0.522,0.795,0.490,0.993,0.713,0.314,0.564,0.529,�k��,5.3,��
2023/11/25,10:10,0.521,0.793,0.489,0.994,0.713,0.314,0.567,0.528,�k��,4.8,��
2023/11/25,10:20,0.523,0.794,0.491,0.996,0.711,0.314,0.565,0.530,�k��,3.6,��
2023/11/25,10:30,0.522,0.792,0.489,0.995,0.714,0.316,0.565,0.528,���k��,3.1,��
2023/11/25,10:40,0.522,0.793,0.491,0.997,0.714,0.314,0.565,0.529,��,1.7,��
2023/11/25,10:50,0.522,0.793,0.490,0.995,0.714,0.314,0.563,0.529,���쐼,1.1,�L
2023/11/25,11:00,0.522,0.793,0.490,0.994,0.714,0.314,0.564,0.530,�k�k��,2.9,��
2023/11/25,11:10,0.523,0.797,0.490,0.995,0.714,0.314,0.563,0.529,�k�k��,4.0,�L
2023/11/25,11:20,0.522,0.795,0.489,0.995,0.714,0.315,0.565,0.529,�k�k��,1.7,�L
2023/11/25,11:30,0.523,0.796,0.490,0.996,0.715,0.317,0.565,0.529,���k��,1.2,�L
2023/11/25,11:40,0.522,0.794,0.492,0.996,0.714,0.315,0.566,0.529,�k�k��,1.2,��
2023/11/25,11:50,0.522,0.796,0.490,0.996,0.714,0.316,0.565,0.528,�k�k��,0.9,��
2023/11/25,12:00,0.523,0.795,0.491,0.997,0.713,0.316,0.565,0.528,�k�k��,2.9,��
2023/11/25,12:10,0.523,0.795,0.492,0.995,0.712,0.315,0.566,0.528,�k�k��,4.9,�L
2023/11/25,12:20,0.521,0.797,0.490,0.997,0.714,0.315,0.566,0.528,�k��,4.9,�L
2023/11/25,12:30,0.523,0.797,0.490,0.995,0.715,0.315,0.566,0.528,�k�k��,4.1,��
2023/11/25,12:40,0.523,0.796,0.490,0.998,0.715,0.316,0.565,0.530,�k�k��,4.3,��
2023/11/25,12:50,0.522,0.796,0.490,0.995,0.714,0.315,0.563,0.528,�k�k��,4.1,�L
2023/11/25,13:00,0.523,0.796,0.489,0.998,0.714,0.315,0.566,0.529,�k�k��,3.6,��
2023/11/25,13:10,0.523,0.795,0.491,0.999,0.714,0.316,0.565,0.529,�k��,3.0,��
2023/11/25,13:20,0.522,0.795,0.491,0.996,0.713,0.314,0.566,0.529,�k��,4.1,�L
2023/11/25,13:30,0.521,0.794,0.489,0.996,0.716,0.314,0.567,0.528,�k��,2.8,�L
2023/11/25,13:40,0.521,0.795,0.489,0.994,0.714,0.316,0.565,0.529,�k��,2.5,�L
2023/11/25,13:50,0.522,0.794,0.490,0.995,0.713,0.315,0.567,0.529,�k�k��,3.8,�L
2023/11/25,14:00,0.522,0.796,0.490,0.998,0.713,0.315,0.565,0.527,�k�k��,3.3,��
2023/11/25,14:10,0.522,0.794,0.490,0.996,0.715,0.315,0.567,0.529,�k�k��,4.5,��
2023/11/25,14:20,0.522,0.796,0.489,0.997,0.714,0.317,0.566,0.529,�k�k��,3.4,��
2023/11/25,14:30,0.523,0.798,0.491,0.995,0.713,0.313,0.566,0.529,�k�k��,4.4,��
2023/11/25,14:40,0.522,0.794,0.491,0.996,0.711,0.315,0.566,0.527,�k�k��,3.8,�L
2023/11/25,14:50,0.523,0.796,0.489,0.996,0.713,0.314,0.566,0.528,�k�k��,4.6,��
2023/11/25,15:00,0.521,0.795,0.492,0.998,0.714,0.315,0.566,0.528,�k�k��,4.8,�L
2023/11/25,15:10,0.523,0.795,0.490,0.997,0.714,0.314,0.566,0.528,�k�k��,4.4,��
2023/11/25,15:20,0.523,0.796,0.490,0.995,0.713,0.314,0.566,0.528,�k�k��,4.0,�L
2023/11/25,15:30,0.522,0.794,0.490,0.994,0.714,0.316,0.568,0.529,�k��,4.5,��
2023/11/25,15:40,0.521,0.795,0.490,0.995,0.712,0.316,0.566,0.528,�k��,4.5,�L
2023/11/25,15:50,0.522,0.796,0.490,0.996,0.712,0.315,0.566,0.527,�k��,4.0,��
2023/11/25,16:00,0.522,0.796,0.490,0.996,0.713,0.315,0.564,0.530,�k�k��,5.2,��
2023/11/25,16:10,0.521,0.794,0.490,0.996,0.713,0.315,0.566,0.528,�k��,4.8,��
2023/11/25,16:20,0.522,0.794,0.491,0.997,0.712,0.314,0.567,0.528,�k��,3.4,��
2023/11/25,16:30,0.520,0.797,0.488,0.995,0.713,0.315,0.567,0.527,�k��,3.8,��
2023/11/25,16:40,0.522,0.795,0.489,0.996,0.713,0.314,0.567,0.529,�k��,3.8,��
2023/11/25,16:50,0.522,0.796,0.490,0.996,0.711,0.316,0.568,0.529,�k��,3.5,��
2023/11/25,17:00,0.522,0.795,0.490,0.996,0.715,0.314,0.568,0.529,�k��,2.3,��
2023/11/25,17:10,0.522,0.796,0.491,0.996,0.713,0.315,0.568,0.528,�k��,2.3,��
2023/11/25,17:20,0.521,0.794,0.490,0.995,0.713,0.314,0.567,0.528,�k��,2.8,��
2023/11/25,17:30,0.521,0.795,0.490,0.994,0.712,0.314,0.567,0.526,�k��,2.3,��
2023/11/25,17:40,0.521,0.795,0.489,0.995,0.713,0.315,0.566,0.528,�k��,1.7,��
2023/11/25,17:50,0.522,0.796,0.489,0.995,0.713,0.314,0.568,0.527,�k��,2.0,��
2023/11/25,18:00,0.520,0.795,0.490,0.995,0.713,0.314,0.566,0.528,�k��,2.2,��
2023/11/25,18:10,0.521,0.795,0.490,0.994,0.714,0.314,0.565,0.528,�k��,1.7,��
2023/11/25,18:20,0.523,0.794,0.490,0.998,0.712,0.314,0.566,0.527,�k��,3.2,��
2023/11/25,18:30,0.521,0.792,0.489,0.995,0.714,0.316,0.568,0.528,�k�k��,3.4,��
2023/11/25,18:40,0.524,0.794,0.489,0.997,0.712,0.314,0.567,0.528,�k��,2.6,��
2023/11/25,18:50,0.522,0.794,0.490,0.996,0.714,0.313,0.565,0.529,�k��,2.6,��
2023/11/25,19:00,0.520,0.794,0.490,0.996,0.715,0.314,0.566,0.528,�k��,2.3,��
2023/11/25,19:10,0.522,0.796,0.490,0.998,0.713,0.314,0.565,0.529,�k��,2.8,��
2023/11/25,19:20,0.522,0.793,0.490,0.995,0.713,0.315,0.566,0.528,�k�k��,3.1,��
2023/11/25,19:30,0.522,0.795,0.488,0.995,0.713,0.314,0.566,0.528,�k�k��,2.9,��
2023/11/25,19:40,0.520,0.795,0.490,0.996,0.715,0.314,0.564,0.526,�k��,3.1,��
2023/11/25,19:50,0.522,0.794,0.488,0.995,0.713,0.315,0.567,0.527,�k��,3.1,��
2023/11/25,20:00,0.521,0.795,0.489,0.996,0.713,0.315,0.566,0.529,�k��,3.1,��
2023/11/25,20:10,0.522,0.795,0.489,0.998,0.713,0.314,0.566,0.527,�k��,3.1,��
2023/11/25,20:20,0.520,0.794,0.490,0.996,0.714,0.314,0.567,0.528,�k��,3.3,��
2023/11/25,20:30,0.521,0.793,0.490,0.995,0.714,0.313,0.565,0.527,�k�k��,2.9,��
2023/11/25,20:40,0.521,0.794,0.489,0.995,0.713,0.314,0.564,0.527,�k��,3.1,��
2023/11/25,20:50,0.520,0.795,0.489,0.998,0.713,0.314,0.566,0.527,�k�k��,3.6,��
2023/11/25,21:00,0.522,0.795,0.488,0.995,0.713,0.315,0.566,0.527,�k�k��,3.3,��
2023/11/25,21:10,0.519,0.794,0.489,0.997,0.713,0.315,0.565,0.526,�k��,2.3,��
2023/11/25,21:20,0.521,0.795,0.490,0.995,0.714,0.315,0.566,0.527,�k�k��,3.2,��
2023/11/25,21:30,0.520,0.796,0.488,0.992,0.713,0.315,0.565,0.528,�k�k��,4.0,��
2023/11/25,21:40,0.520,0.793,0.489,0.996,0.712,0.316,0.565,0.529,�k�k��,3.2,��
2023/11/25,21:50,0.519,0.793,0.490,0.994,0.713,0.313,0.564,0.528,�k�k��,3.4,��
2023/11/25,22:00,0.521,0.796,0.490,0.994,0.711,0.313,0.566,0.527,�k��,2.3,��
2023/11/25,22:10,0.520,0.793,0.488,0.994,0.714,0.312,0.566,0.528,�k�k��,4.4,��
2023/11/25,22:20,0.521,0.794,0.488,0.996,0.713,0.315,0.566,0.527,�k�k��,4.7,��
2023/11/25,22:30,0.521,0.794,0.489,0.997,0.713,0.314,0.566,0.528,�k�k��,5.2,��
2023/11/25,22:40,0.523,0.795,0.490,0.996,0.715,0.315,0.565,0.527,�k�k��,7.4,��
2023/11/25,22:50,0.522,0.793,0.489,0.995,0.711,0.315,0.567,0.529,�k�k��,4.9,��
2023/11/25,23:00,0.520,0.794,0.490,0.996,0.713,0.314,0.566,0.528,�k�k��,4.7,��
2023/11/25,23:10,0.521,0.795,0.489,0.996,0.712,0.314,0.566,0.526,�k�k��,5.0,��
2023/11/25,23:20,0.522,0.793,0.488,0.997,0.713,0.314,0.568,0.528,�k�k��,5.5,��
2023/11/25,23:30,0.522,0.794,0.490,0.994,0.713,0.315,0.566,0.528,�k�k��,5.4,��
2023/11/25,23:40,0.522,0.796,0.489,0.996,0.713,0.315,0.566,0.527,�k�k��,5.6,��
2023/11/25,23:50,0.521,0.793,0.490,0.997,0.714,0.314,0.565,0.528,�k�k��,6.0,��
